Current Version              Previous Version:    01  02  03  04  05  06  07  08  09  10  11  12  13  14  15  16  17  18  19  20  21  22  23  24  25  26  27  28  29  30  
   31  32  33  34  35  36  37  38  39  40  41  42  43  44  45  46  47  48  49  50  51  52  53  54  55  56  57  58  59  60  

[Printable]
870
ASUS44 KFWD 012115
RWRTX
NORTH TEXAS HOURLY WEATHER ROUNDUP
NATIONAL WEATHER SERVICE FORT WORTH TX
400 PM CDT FRI AUG 01 2014

NOTE: "FAIR" INDICATES FEW OR NO CLOUDS BELOW 12,000 FEET WITH NO
SIGNIFICANT WEATHER AND/OR OBSTRUCTIONS TO VISIBILITY.

TXZ118-119-012200-
DALLAS/FORT WORTH METROPLEX

CITY           SKY/WX    TMP DP  RH WIND       PRES   REMARKS
DFW AIRPORT    PTSUNNY   80  65  59 NE7       30.04F
DALLAS LOVE    CLOUDY    79  66  64 NE9       30.04F
FTW MEACHAM    CLOUDY    84  65  52 NE7       30.03F
DAL-EXECUTIVE  CLOUDY    81  64  57 N7        30.03F
FTW-ALLIANCE   PTSUNNY   83  65  54 NE9       30.04F
FTW-NAS-JRB    CLOUDY    85  63  47 N8        30.08F
FTW-SPINKS     PTSUNNY   82  64  54 NE7       30.05F
ARLINGTON      CLOUDY    78  65  63 N9        30.04F
GRAND PRAIRIE  PTSUNNY   77  64  65 N10       30.05F
ADDISON        PTSUNNY   77  64  65 NE8       30.05F
MESQUITE       CLOUDY    75  66  73 N10       30.04F
LANCASTER      CLOUDY    78  64  63 N7        30.04F
$$

TXZ091>094-102>105-117-120-121-131>134-012200-
NORTH CENTRAL TEXAS

CITY           SKY/WX    TMP DP  RH WIND       PRES   REMARKS
SHRMAN/DENISON CLOUDY    75  66  75 NE3       30.07F
GAINESVILLE    CLOUDY    77  65  65 NE7       30.08F
BOWIE          PTSUNNY   80  65  61 NE7       30.07F
BRIDGEPORT     PTSUNNY   81  61  51 NW5       30.07F
DECATUR        MOSUNNY   80  64  57 NE5       30.07S
DENTON         PTSUNNY   81  65  58 NE6       30.05F
MCKINNEY       CLOUDY    77  68  73 NE9       30.04F
GREENVILLE     CLOUDY    73  66  78 N6        30.04F
ROCKWALL       CLOUDY    75  67  76 N9        30.04S
TERRELL        CLOUDY    79  67  66 N8        30.04F
WAXAHACHIE     CLOUDY    78  64  63 N7        30.05F
CLEBURNE       PTSUNNY   82  68  61 NE12      30.05F
GRANBURY       PTSUNNY   85  63  47 N8G16     30.05F
$$

TXZ083>090-098>101-113>116-127>130-139>142-154-155-012200-
WESTERN NORTH TEXAS

CITY           SKY/WX    TMP DP  RH WIND       PRES   REMARKS
WICHITA FALLS  PTSUNNY   82  67  60 E5        30.06F
WF-KICKAPOO    PTSUNNY   82  65  56 NE7       30.07F
VERNON           N/A    N/A N/A N/A MISG        N/A
ABILENE        MOSUNNY   85  57  38 N6        30.07F
ABILENE-DYESS  SUNNY     86  58  39 VRB2      30.06F
BRECKENRIDGE   PTSUNNY   87  57  35 N10       30.05F HAZE
GRAHAM         PTSUNNY   84  62  46 NE7       30.05F
MINERAL WELLS  PTSUNNY   83  62  49 NE12      30.04F
STEPHENVILLE   PTSUNNY   83  61  47 N9G16     30.08F
COMANCHE       MOSUNNY   83  58  42 N10       30.06F
BROWNWOOD      MOSUNNY   84  59  42 N10G16    30.05F
COLEMAN        PTSUNNY   87  55  33 NE12G17   30.06F
BRADY          PTSUNNY   86  57  37 N8        30.05F
$$

TXZ143>147-156>162-174-175-012200-
CENTRAL TEXAS

CITY           SKY/WX    TMP DP  RH WIND       PRES   REMARKS
WACO           CLOUDY    82  65  56 N13       30.02F
WACO-TSTC      CLOUDY    82  66  57 N13       30.01F
WACO-MCGREGOR  CLOUDY    81  64  57 N12       30.04F
HILLSBORO      PTSUNNY   80  65  59 N8        30.03F
CORSICANA      CLOUDY    81  67  62 N7G17     30.03F
MEXIA          CLOUDY    75  68  77 NE7       30.02F
HEARNE         CLOUDY    82  67  60 N12       30.00F
CAMERON        CLOUDY    83  66  56 N7        29.99F
TEMPLE         CLOUDY    82  63  51 N10       30.00F
KILLEEN        CLOUDY    82  64  54 N8        30.03F
KILLEEN-SKYLRK CLOUDY    81  63  54 NW5       30.02F
FORT HOOD      CLOUDY    83  65  54 N6        30.03F
GATESVILLE     PTSUNNY   82  64  54 N8        30.05F
HAMILTON       CLOUDY    84  62  48 N13       30.05F
LAMPASAS       CLOUDY    82  66  58 NE8G16    30.03F
$$

TXZ095>097-106>112-122>126-135>138-148>153-164>167-012200-
EAST TEXAS

CITY           SKY/WX    TMP DP  RH WIND       PRES   REMARKS
PARIS          CLOUDY    75  64  69 NE9       30.05F
SULPHUR SPRNGS CLOUDY    75  67  76 NE6       30.06S
CLARKSVILLE    CLOUDY    76  69  80 NE3       30.04F
MOUNT PLEASANT CLOUDY    74  68  82 NE6       30.04F
GILMER         PTSUNNY   73  70  88 N8        30.03F
MINEOLA        CLOUDY    75  70  83 N7        30.04F
TYLER          CLOUDY    73  66  78 NE8       30.02F
LONGVIEW       CLOUDY    73  66  78 N6        30.00F
MARSHALL       CLOUDY    73  69  86 NE8       30.02F
ATHENS         CLOUDY    73  66  78 N8        30.01F
JACKSONVILLE   CLOUDY    72  67  84 N7        30.03F
HENDERSON      CLOUDY    71  68  91 N5        30.02F
NACOGDOCHES    CLOUDY    72  70  94 N7        30.00F
LUFKIN         CLOUDY    76  69  79 N6        29.99F
$$

SUPPLEMENTAL OBSERVATIONS (CENTRAL)

CITY           SKY/WX    TMP DP  RH WIND       PRES   REMARKS
LAKE TEXOMA      N/A     73  66  78 NE3         N/A
CADDO GRASSLND   N/A     75  68  78 NE3         N/A
PAT MAYSE LAKE   N/A     75  66  73 N5          N/A
GREENVILLE       N/A     73  66  78 N7          N/A
CEDAR HILL       N/A     79  66  65 VRB5        N/A
ATHENS           N/A     75  68  78 NE1         N/A
PALESTINE        N/A     73  66  78 N6          N/A
LAKE LIMESTONE   N/A     77  73  88 NE8         N/A
MCGREGOR         N/A     82  64  54 N8          N/A
TEMPLE           N/A     82  64  54 N2G14       N/A
$$

SUPPLEMENTAL OBSERVATIONS (WEST)

CITY           SKY/WX    TMP DP  RH WIND       PRES   REMARKS
MILLERS CREEK    N/A     90  64  43 NE6G15      N/A  HX  91
POSSUM KINGDOM   N/A     86  61  42 NE8         N/A
LBJ GRASSLAND    N/A     84  66  54 VRB5        N/A
GRANBURY         N/A     84  63  48 N12         N/A
HAMBY            N/A     86  57  37 E7          N/A
IVIE RESERVOIR   N/A     90  59  35 N8          N/A
COLORADO BEND    N/A     86  59  39 NE7G17      N/A
$$

SUPPLEMENTAL OBSERVATIONS (EAST)

CITY           SKY/WX    TMP DP  RH WIND       PRES   REMARKS
CLARKSVILLE      N/A     77  68  73 E3          N/A
TEXARKANA        N/A     72  66  83 NE6         N/A
LINDEN           N/A     73  68  83 E1G9        N/A
CADDO LAKE       N/A     73  68  83 N2          N/A
GILMER           N/A     73  66  78 N6          N/A
HENDERSON        N/A     72  66  83 CALM        N/A
LUFKIN           N/A     73  72  94 MISG        N/A
N SABINE NF      N/A     73  70  88 MISG        N/A
S SABINE NF      N/A     75  70  83 NW3         N/A
$$

SUPPLEMENTAL OBSERVATIONS ARE A COLLECTION OF AUTOMATED INSTRUMENTS
THAT ARE MAINTAINED BY A VARIETY OF FEDERAL AND STATE AGENCIES.
CERTAIN ELEMENTS...SUCH AS HUMIDITY VALUES AND SUSTAINED WIND
SPEEDS...MAY BE APPROXIMATED.